| time (UTC) | temp C | wind direction | speed KPH | gust KPH | rain 1hr cm | rain 24hr cm | rain mn cm | humidity % | barometer mb |
| 20260905014943 | 15 | 315 | 6.4 | 12.9 | 0.00 | 0.00 | 0.03 | 8 | 1003.9 |
| 20260905014422 | 15 | 315 | 9.7 | 11.3 | 0.00 | 0.00 | 0.03 | 7 | 1002.7 |
| 20260905014406 | 15 | 315 | 9.7 | 12.9 | 0.00 | 0.00 | 0.03 | 8 | 1002.7 |
| 20260905013845 | 15 | 292 | 12.9 | 22.5 | 0.00 | 0.00 | 0.03 | 8 | 1003.6 |
| 20260905013330 | 15 | 315 | 8.0 | 16.1 | 0.00 | 0.00 | 0.03 | 8 | 1003.1 |
| 20260905012815 | 15 | 315 | 9.7 | 17.7 | 0.00 | 0.00 | 0.03 | 8 | 1003.1 |
| 20260905012254 | 15 | 270 | 12.9 | 17.7 | 0.00 | 0.00 | 0.03 | 7 | 1003.5 |
| 20260905012238 | 15 | 270 | 9.7 | 19.3 | 0.00 | 0.00 | 0.03 | 7 | 1003.5 |
| 20260905011717 | 15 | 270 | 6.4 | 11.3 | 0.00 | 0.00 | 0.03 | 7 | 1001.6 |
| 20260905011202 | 15 | 270 | 4.8 | 8.0 | 0.00 | 0.00 | 0.03 | 7 | 1000.3 |
| 20260905010647 | 15 | 247 | 0.0 | 4.8 | 0.00 | 0.00 | 0.00 | 6 | 1000.3 |
| 20260905010126 | 15 | 225 | 0.0 | 0.0 | 0.00 | 0.00 | 0.00 | 6 | 1002.1 |
| 20260905010110 | 15 | 225 | 0.0 | 0.0 | 0.00 | 0.00 | 0.00 | 6 | 1001.9 |
| 20260905005549 | 15 | 270 | 6.4 | 9.7 | 0.00 | 0.00 | 0.00 | 6 | 1000.7 |
| 20260905005034 | 16 | 270 | 4.8 | 6.4 | 0.00 | 0.00 | 0.00 | 6 | 1000.9 |
| 20260905004519 | 16 | 247 | 6.4 | 8.0 | 0.00 | 0.00 | 0.00 | 7 | 1001.5 |
| 20260905003958 | 16 | 315 | 6.4 | 8.0 | 0.00 | 0.00 | 0.00 | 7 | 1001.2 |
| 20260905003942 | 16 | 292 | 6.4 | 12.9 | 0.00 | 0.00 | 0.00 | 7 | 1001.3 |
| 20260905003427 | 16 | 337 | 11.3 | 20.9 | 0.00 | 0.00 | 0.00 | 7 | 1001.1 |
| 20260905002907 | 16 | 315 | 8.0 | 12.9 | 0.00 | 0.00 | 0.00 | 7 | 1000.4 |
| 20260905002351 | 16 | 292 | 8.0 | 11.3 | 0.00 | 0.00 | 0.00 | 7 | 1000.8 |
| 20260905001830 | 16 | 270 | 9.7 | 12.9 | 0.00 | 0.00 | 0.00 | 7 | 1000.9 |
| 20260905001815 | 16 | 315 | 9.7 | 22.5 | 0.00 | 0.00 | 0.00 | 7 | 1001.1 |
| 20260905001254 | 16 | 315 | 16.1 | 25.7 | 0.00 | 0.00 | 0.00 | 7 | 1000.6 |
| 20260905000738 | 16 | 315 | 16.1 | 27.4 | 0.00 | 0.00 | 0.00 | 7 | 1000.3 |
| 20260905000226 | 16 | 292 | 17.7 | 30.6 | 0.00 | 0.00 | 0.00 | 7 | 1000.4 |
| 20260904235702 | 16 | 337 | 19.3 | 27.4 | 0.00 | 0.00 | 0.00 | 7 | 1000.5 |
| 20260904235646 | 16 | 315 | 19.3 | 29.0 | 0.00 | 0.00 | 0.00 | 7 | 1000.4 |
| 20260904235125 | 16 | 315 | 27.4 | 45.1 | 0.00 | 0.00 | 0.00 | 7 | 999.9 |
| 20260904234610 | 16 | -1 | 32.2 | 48.3 | 0.00 | 0.00 | 0.00 | 7 | 999.5 |
| 20260904234055 | 16 | 315 | 29.0 | 48.3 | 0.00 | 0.00 | 0.00 | 7 | 998.8 |
| 20260904233534 | 16 | -1 | 29.0 | 40.2 | 0.00 | 0.00 | 0.00 | 7 | 998.7 |
| 20260904233510 | 17 | 337 | 33.8 | 51.5 | 0.00 | 0.00 | 0.00 | 7 | 998.8 |
| 20260904232954 | 17 | 315 | 40.2 | 67.6 | 0.00 | 0.00 | 0.00 | 7 | 998.3 |
| 20260904232439 | 17 | 0 | 37.0 | 56.3 | 0.00 | 0.00 | 0.00 | 7 | 999.1 |
| 20260904231918 | 17 | 337 | 25.7 | 37.0 | 0.00 | 0.00 | 0.00 | 7 | 1000.6 |
| 20260904231856 | 17 | 0 | 30.6 | 54.7 | 0.00 | 0.00 | 0.00 | 7 | 1000.6 |
| 20260904231341 | 17 | 315 | 32.2 | 51.5 | 0.00 | 0.00 | 0.00 | 7 | 1000.3 |
| 20260904230826 | 17 | 0 | 27.4 | 45.1 | 0.00 | 0.00 | 0.00 | 7 | 1000.6 |
| 20260904230303 | 17 | 292 | 16.1 | 25.7 | 0.00 | 0.00 | 0.00 | 7 | 1000.3 |
| 20260904230247 | 17 | 0 | 27.4 | 46.7 | 0.00 | 0.00 | 0.00 | 7 | 1000.5 |
| 20260904225726 | 17 | 315 | 27.4 | 41.8 | 0.00 | 0.00 | 0.00 | 7 | 1000.2 |
| 20260904225211 | 17 | 337 | 22.5 | 38.6 | 0.00 | 0.00 | 0.00 | 7 | 1000.6 |
| 20260904224656 | 17 | 337 | 19.3 | 40.2 | 0.00 | 0.00 | 0.00 | 7 | 1000.4 |
| 20260904224135 | 17 | 45 | 20.9 | 30.6 | 0.00 | 0.00 | 0.00 | 7 | 999.9 |
| 20260904224111 | 17 | 0 | 22.5 | 43.5 | 0.00 | 0.00 | 0.00 | 7 | 1000.1 |
| 20260904223556 | 17 | 45 | 25.7 | 51.5 | 0.00 | 0.00 | 0.00 | 7 | 999.5 |
| 20260904223041 | 18 | 0 | 32.2 | 53.1 | 0.00 | 0.00 | 0.00 | 7 | 998.4 |
| 20260904222520 | 20 | 337 | 22.5 | 35.4 | 0.00 | 0.00 | 0.00 | 7 | 998.9 |
| 20260904222456 | 20 | 0 | 35.4 | 62.8 | 0.00 | 0.00 | 0.00 | 7 | 998.7 |
| 20260904221941 | 21 | 315 | 29.0 | 56.3 | 0.00 | 0.00 | 0.00 | 6 | 997.8 |
| 20260904221426 | 21 | 270 | 16.1 | 33.8 | 0.00 | 0.00 | 0.00 | 6 | 997.9 |
| 20260904220905 | 22 | 270 | 6.4 | 9.7 | 0.00 | 0.00 | 0.00 | 6 | 998.0 |
| 20260904220848 | 22 | 270 | 14.5 | 25.7 | 0.00 | 0.00 | 0.00 | 6 | 997.8 |
| 20260904220327 | 22 | 270 | 12.9 | 22.5 | 0.00 | 0.00 | 0.00 | 6 | 997.8 |
| 20260904215812 | 22 | 270 | 11.3 | 19.3 | 0.00 | 0.00 | 0.00 | 6 | 997.2 |
| 20260904215257 | 22 | 270 | 16.1 | 24.1 | 0.00 | 0.00 | 0.00 | 6 | 997.3 |
| 20260904214736 | 22 | 270 | 16.1 | 22.5 | 0.00 | 0.00 | 0.00 | 6 | 996.8 |
| 20260904214720 | 22 | 270 | 16.1 | 25.7 | 0.00 | 0.00 | 0.00 | 6 | 996.8 |
| 20260904214159 | 22 | 270 | 16.1 | 27.4 | 0.00 | 0.00 | 0.00 | 6 | 997.0 |
| 20260904213644 | 22 | 270 | 16.1 | 27.4 | 0.00 | 0.00 | 0.00 | 6 | 997.1 |
| 20260904213129 | 22 | 270 | 16.1 | 30.6 | 0.00 | 0.00 | 0.00 | 6 | 996.9 |
| 20260904212608 | 22 | 270 | 14.5 | 20.9 | 0.00 | 0.00 | 0.00 | 6 | 997.1 |
| 20260904212552 | 22 | 270 | 16.1 | 27.4 | 0.00 | 0.00 | 0.00 | 6 | 996.9 |
| 20260904212031 | 22 | 270 | 14.5 | 24.1 | 0.00 | 0.00 | 0.00 | 6 | 997.2 |
| 20260904211516 | 22 | 270 | 16.1 | 25.7 | 0.00 | 0.00 | 0.00 | 6 | 997.0 |
| 20260904211001 | 22 | 225 | 14.5 | 24.1 | 0.00 | 0.00 | 0.00 | 6 | 997.1 |
| 20260904210440 | 22 | 270 | 14.5 | 17.7 | 0.00 | 0.00 | 0.00 | 6 | 996.9 |
| 20260904210417 | 22 | 270 | 17.7 | 29.0 | 0.00 | 0.00 | 0.00 | 6 | 996.9 |
| 20260904205902 | 22 | 270 | 16.1 | 25.7 | 0.00 | 0.00 | 0.00 | 6 | 996.8 |
| 20260904205347 | 22 | 225 | 16.1 | 27.4 | 0.00 | 0.00 | 0.00 | 6 | 996.6 |
| 20260904204826 | 22 | 270 | 17.7 | 24.1 | 0.00 | 0.00 | 0.00 | 6 | 996.6 |
| 20260904204801 | 22 | 247 | 16.1 | 29.0 | 0.00 | 0.00 | 0.00 | 5 | 996.8 |
| 20260904204246 | 22 | 270 | 12.9 | 20.9 | 0.00 | 0.00 | 0.00 | 5 | 996.7 |
| 20260904203731 | 22 | 270 | 12.9 | 25.7 | 0.00 | 0.00 | 0.00 | 6 | 996.7 |
| 20260904203210 | 22 | 270 | 12.9 | 17.7 | 0.00 | 0.00 | 0.00 | 6 | 996.4 |
| 20260904203146 | 22 | 270 | 12.9 | 22.5 | 0.00 | 0.00 | 0.00 | 5 | 996.8 |
| 20260904202631 | 22 | 270 | 9.7 | 16.1 | 0.00 | 0.00 | 0.00 | 5 | 996.7 |
| 20260904202116 | 22 | 270 | 12.9 | 29.0 | 0.00 | 0.00 | 0.00 | 5 | 996.9 |
| 20260904201555 | 23 | 247 | 11.3 | 14.5 | 0.00 | 0.00 | 0.00 | 5 | 997.0 |
| 20260904201538 | 23 | 225 | 14.5 | 27.4 | 0.00 | 0.00 | 0.00 | 5 | 996.9 |
| 20260904201017 | 23 | 270 | 14.5 | 24.1 | 0.00 | 0.00 | 0.00 | 5 | 996.4 |
| 20260904200502 | 23 | 270 | 14.5 | 25.7 | 0.00 | 0.00 | 0.00 | 5 | 996.5 |
| 20260904195947 | 23 | 225 | 12.9 | 22.5 | 0.00 | 0.00 | 0.00 | 5 | 996.6 |
| 20260904195426 | 23 | 270 | 9.7 | 12.9 | 0.00 | 0.00 | 0.00 | 5 | 996.9 |
| 20260904195406 | 23 | 270 | 12.9 | 20.9 | 0.00 | 0.00 | 0.00 | 5 | 996.7 |
| 20260904194852 | 23 | 270 | 9.7 | 17.7 | 0.00 | 0.00 | 0.00 | 5 | 996.6 |
| 20260904194336 | 23 | 270 | 9.7 | 19.3 | 0.00 | 0.00 | 0.00 | 5 | 997.0 |
| 20260904193810 | 23 | 270 | 8.0 | 11.3 | 0.00 | 0.00 | 0.00 | 5 | 997.3 |
| 20260904193755 | 23 | 270 | 9.7 | 17.7 | 0.00 | 0.00 | 0.00 | 5 | 997.0 |
| 20260904193234 | 23 | 270 | 12.9 | 22.5 | 0.00 | 0.00 | 0.00 | 5 | 996.5 |
| 20260904192719 | 23 | 270 | 14.5 | 24.1 | 0.00 | 0.00 | 0.00 | 5 | 996.8 |
| 20260904192203 | 23 | 270 | 12.9 | 24.1 | 0.00 | 0.00 | 0.00 | 5 | 997.1 |
| 20260904191643 | 23 | 270 | 6.4 | 9.7 | 0.00 | 0.00 | 0.00 | 5 | 997.0 |
| 20260904191627 | 23 | 270 | 11.3 | 20.9 | 0.00 | 0.00 | 0.00 | 5 | 996.8 |
| 20260904191106 | 23 | 270 | 12.9 | 22.5 | 0.00 | 0.00 | 0.00 | 5 | 996.4 |
| 20260904190551 | 23 | 270 | 12.9 | 25.7 | 0.00 | 0.00 | 0.00 | 5 | 996.6 |
| 20260904190036 | 23 | 270 | 14.5 | 24.1 | 0.00 | 0.00 | 0.00 | 5 | 996.5 |
| 20260904185515 | 23 | 270 | 11.3 | 17.7 | 0.00 | 0.00 | 0.00 | 5 | 996.8 |
| 20260904185459 | 23 | 270 | 14.5 | 24.1 | 0.00 | 0.00 | 0.00 | 5 | 996.8 |
| 20260904184938 | 23 | 270 | 12.9 | 19.3 | 0.00 | 0.00 | 0.00 | 5 | 996.5 |
| 20260904184423 | 23 | 225 | 9.7 | 16.1 | 0.00 | 0.00 | 0.00 | 5 | 996.2 |
| 20260904183908 | 24 | 225 | 12.9 | 20.9 | 0.00 | 0.00 | 0.00 | 5 | 996.8 |
| 20260904183347 | 24 | 270 | 16.1 | 22.5 | 0.00 | 0.00 | 0.00 | 5 | 996.3 |
| 20260904183331 | 24 | 225 | 17.7 | 25.7 | 0.00 | 0.00 | 0.00 | 5 | 996.4 |
| 20260904182810 | 24 | -1 | 16.1 | 27.4 | 0.00 | 0.00 | 0.00 | 5 | 995.5 |
| 20260904182255 | 24 | 225 | 20.9 | 29.0 | 0.00 | 0.00 | 0.00 | 5 | 996.5 |
| 20260904181740 | 24 | 225 | 17.7 | 30.6 | 0.00 | 0.00 | 0.00 | 5 | 996.2 |
| 20260904181219 | 25 | 270 | 14.5 | 19.3 | 0.00 | 0.00 | 0.00 | 5 | 996.4 |
| 20260904181155 | 25 | 225 | 20.9 | 33.8 | 0.00 | 0.00 | 0.00 | 5 | 996.0 |
| 20260904180640 | 25 | -1 | 17.7 | 30.6 | 0.00 | 0.00 | 0.00 | 5 | 995.8 |
| 20260904180125 | 25 | -1 | 16.1 | 24.1 | 0.00 | 0.00 | 0.00 | 5 | 996.0 |
| 20260904175604 | 25 | 225 | 14.5 | 22.5 | 0.00 | 0.00 | 0.00 | 5 | 996.1 |
| 20260904175547 | 25 | -1 | 19.3 | 27.4 | 0.00 | 0.00 | 0.00 | 5 | 996.0 |
| 20260904175026 | 25 | -1 | 20.9 | 41.8 | 0.00 | 0.00 | 0.00 | 5 | 996.0 |
| 20260904174511 | 25 | -1 | 19.3 | 27.4 | 0.00 | 0.00 | 0.00 | 5 | 996.2 |
| 20260904173956 | 25 | -1 | 16.1 | 25.7 | 0.00 | 0.00 | 0.00 | 5 | 995.8 |
| 20260904173435 | 25 | 270 | 12.9 | 17.7 | 0.00 | 0.00 | 0.00 | 5 | 996.2 |
| 20260904173419 | 25 | -1 | 14.5 | 25.7 | 0.00 | 0.00 | 0.00 | 5 | 996.3 |
| 20260904172858 | 25 | -1 | 16.1 | 24.1 | 0.00 | 0.00 | 0.00 | 5 | 996.2 |
| 20260904172343 | 25 | -1 | 17.7 | 29.0 | 0.00 | 0.00 | 0.00 | 5 | 996.5 |
| 20260904171828 | 25 | -1 | 19.3 | 35.4 | 0.00 | 0.00 | 0.00 | 5 | 996.2 |
| 20260904171307 | 25 | 270 | 16.1 | 22.5 | 0.00 | 0.00 | 0.00 | 5 | 996.3 |
| 20260904171250 | 25 | 270 | 19.3 | 29.0 | 0.00 | 0.00 | 0.00 | 5 | 996.0 |
| 20260904170729 | 25 | 270 | 22.5 | 37.0 | 0.00 | 0.00 | 0.00 | 5 | 996.1 |
| 20260904170214 | 26 | 270 | 24.1 | 41.8 | 0.00 | 0.00 | 0.00 | 4 | 996.2 |
| 20260904165653 | 26 | 270 | 29.0 | 41.8 | 0.00 | 0.00 | 0.00 | 4 | 996.5 |
| 20260904165636 | 26 | 292 | 24.1 | 41.8 | 0.00 | 0.00 | 0.00 | 4 | 996.6 |
| 20260904165115 | 26 | 292 | 20.9 | 37.0 | 0.00 | 0.00 | 0.00 | 4 | 996.4 |
| 20260904164600 | 26 | -1 | 24.1 | 35.4 | 0.00 | 0.00 | 0.00 | 4 | 996.0 |
| 20260904164045 | 26 | 270 | 19.3 | 29.0 | 0.00 | 0.00 | 0.00 | 4 | 996.3 |
| 20260904163524 | 26 | 247 | 24.1 | 33.8 | 0.00 | 0.00 | 0.00 | 4 | 996.6 |
| 20260904163500 | 26 | 247 | 17.7 | 30.6 | 0.00 | 0.00 | 0.00 | 4 | 996.0 |
| 20260904162945 | 26 | 270 | 19.3 | 35.4 | 0.00 | 0.00 | 0.00 | 4 | 996.6 |
| 20260904162430 | 26 | 270 | 22.5 | 35.4 | 0.00 | 0.00 | 0.00 | 4 | 996.3 |
| 20260904161909 | 26 | 247 | 25.7 | 37.0 | 0.00 | 0.00 | 0.00 | 4 | 996.3 |
| 20260904161845 | 26 | 270 | 27.4 | 40.2 | 0.00 | 0.00 | 0.00 | 4 | 995.9 |
| 20260904161330 | 26 | 225 | 27.4 | 45.1 | 0.00 | 0.00 | 0.00 | 4 | 996.2 |
| 20260904160815 | 26 | 225 | 30.6 | 46.7 | 0.00 | 0.00 | 0.00 | 5 | 996.0 |
| 20260904160254 | 26 | -1 | 24.1 | 33.8 | 0.00 | 0.00 | 0.00 | 4 | 996.2 |
| 20260904160229 | 26 | -1 | 27.4 | 40.2 | 0.00 | 0.00 | 0.00 | 4 | 996.1 |
| 20260904155714 | 26 | -1 | 22.5 | 40.2 | 0.00 | 0.00 | 0.00 | 4 | 995.6 |
| 20260904155159 | 26 | -1 | 30.6 | 54.7 | 0.00 | 0.00 | 0.00 | 5 | 996.3 |
| 20260904154638 | 26 | 225 | 25.7 | 35.4 | 0.00 | 0.00 | 0.00 | 4 | 996.4 |
| 20260904154622 | 26 | 247 | 27.4 | 45.1 | 0.00 | 0.00 | 0.00 | 4 | 995.5 |
| 20260904154101 | 26 | -1 | 29.0 | 48.3 | 0.00 | 0.00 | 0.00 | 4 | 996.3 |
| 20260904153545 | 26 | 270 | 32.2 | 48.3 | 0.00 | 0.00 | 0.00 | 5 | 995.5 |
| 20260904153030 | 26 | 247 | 30.6 | 41.8 | 0.00 | 0.00 | 0.00 | 4 | 995.4 |
| 20260904152509 | 26 | 247 | 14.5 | 20.9 | 0.00 | 0.00 | 0.00 | 4 | 996.2 |
| 20260904152454 | 26 | 225 | 24.1 | 35.4 | 0.00 | 0.00 | 0.00 | 4 | 996.6 |
| 20260904151933 | 26 | 247 | 32.2 | 54.7 | 0.00 | 0.00 | 0.00 | 4 | 995.4 |
| 20260904151417 | 26 | 225 | 33.8 | 49.9 | 0.00 | 0.00 | 0.00 | 4 | 996.1 |
| 20260904150902 | 26 | 225 | 29.0 | 49.9 | 0.00 | 0.00 | 0.00 | 4 | 995.8 |
| 20260904150341 | 26 | 247 | 30.6 | 38.6 | 0.00 | 0.00 | 0.00 | 4 | 996.2 |
| 20260904150326 | 26 | 202 | 30.6 | 45.1 | 0.00 | 0.00 | 0.00 | 4 | 996.0 |
| 20260904145811 | 26 | 225 | 33.8 | 49.9 | 0.00 | 0.00 | 0.00 | 5 | 995.4 |
| 20260904145250 | 26 | 225 | 38.6 | 56.3 | 0.00 | 0.00 | 0.00 | 4 | 995.6 |
| 20260904144735 | 26 | 225 | 32.2 | 54.7 | 0.00 | 0.00 | 0.00 | 4 | 996.9 |
| 20260904144214 | 26 | 270 | 19.3 | 27.4 | 0.00 | 0.00 | 0.00 | 5 | 995.7 |
| 20260904144158 | 26 | 225 | 32.2 | 49.9 | 0.00 | 0.00 | 0.00 | 4 | 995.9 |
| 20260904143637 | 26 | 247 | 27.4 | 46.7 | 0.00 | 0.00 | 0.00 | 5 | 996.3 |
| 20260904143122 | 26 | 247 | 30.6 | 53.1 | 0.00 | 0.00 | 0.00 | 5 | 996.6 |
| 20260904142607 | 26 | 225 | 33.8 | 51.5 | 0.00 | 0.00 | 0.00 | 4 | 996.7 |
| 20260904142046 | 25 | 202 | 24.1 | 37.0 | 0.00 | 0.00 | 0.00 | 5 | 997.0 |
| 20260904142030 | 25 | 225 | 30.6 | 51.5 | 0.00 | 0.00 | 0.00 | 5 | 996.7 |
| 20260904141509 | 26 | 270 | 32.2 | 53.1 | 0.00 | 0.00 | 0.00 | 5 | 996.7 |
| 20260904140954 | 26 | 247 | 24.1 | 40.2 | 0.00 | 0.00 | 0.00 | 4 | 996.9 |
| 20260904140439 | 26 | 247 | 30.6 | 45.1 | 0.00 | 0.00 | 0.00 | 5 | 996.3 |
| 20260904135918 | 26 | 270 | 22.5 | 32.2 | 0.00 | 0.00 | 0.00 | 5 | 997.1 |
| 20260904135900 | 26 | 225 | 30.6 | 48.3 | 0.00 | 0.00 | 0.00 | 5 | 996.5 |
| 20260904135339 | 26 | 225 | 33.8 | 51.5 | 0.00 | 0.00 | 0.00 | 5 | 995.7 |
| 20260904134824 | 26 | 247 | 24.1 | 46.7 | 0.00 | 0.00 | 0.00 | 5 | 996.7 |
| 20260904134303 | 26 | 247 | 16.1 | 22.5 | 0.00 | 0.00 | 0.00 | 5 | 997.5 |
| 20260904134246 | 26 | 247 | 25.7 | 46.7 | 0.00 | 0.00 | 0.00 | 5 | 997.5 |
| 20260904133725 | 26 | 202 | 27.4 | 53.1 | 0.00 | 0.00 | 0.00 | 5 | 998.6 |
| 20260904133210 | 26 | 225 | 29.0 | 43.5 | 0.00 | 0.00 | 0.00 | 5 | 997.1 |
| 20260904132655 | 25 | 247 | 29.0 | 45.1 | 0.00 | 0.00 | 0.00 | 5 | 997.1 |
| 20260904132134 | 25 | 270 | 25.7 | 35.4 | 0.00 | 0.00 | 0.00 | 5 | 996.8 |
| 20260904132111 | 25 | 270 | 25.7 | 38.6 | 0.00 | 0.00 | 0.00 | 5 | 997.9 |
| 20260904131556 | 25 | 202 | 25.7 | 45.1 | 0.00 | 0.00 | 0.00 | 5 | 998.2 |
| 20260904131041 | 24 | 225 | 24.1 | 38.6 | 0.00 | 0.00 | 0.00 | 5 | 998.5 |
| 20260904130520 | 24 | 247 | 27.4 | 38.6 | 0.00 | 0.00 | 0.00 | 5 | 998.1 |
| 20260904130455 | 24 | 247 | 22.5 | 35.4 | 0.00 | 0.00 | 0.00 | 5 | 998.2 |
| 20260904125940 | 25 | 247 | 20.9 | 38.6 | 0.00 | 0.00 | 0.00 | 5 | 997.9 |
| 20260904125425 | 24 | 270 | 17.7 | 27.4 | 0.00 | 0.00 | 0.00 | 5 | 998.7 |
| 20260904124904 | 23 | 225 | 17.7 | 22.5 | 0.00 | 0.00 | 0.00 | 5 | 998.8 |
| 20260904124848 | 23 | 247 | 20.9 | 32.2 | 0.00 | 0.00 | 0.00 | 5 | 998.5 |
| 20260904124333 | 23 | 247 | 25.7 | 40.2 | 0.00 | 0.00 | 0.00 | 6 | 998.4 |
| 20260904123812 | 23 | 225 | 24.1 | 35.4 | 0.00 | 0.00 | 0.00 | 5 | 999.1 |
| 20260904123256 | 23 | 225 | 22.5 | 41.8 | 0.00 | 0.00 | 0.00 | 5 | 998.8 |
| 20260904122735 | 23 | 225 | 22.5 | 30.6 | 0.00 | 0.00 | 0.00 | 5 | 999.4 |
| 20260904122719 | 23 | 292 | 19.3 | 37.0 | 0.00 | 0.00 | 0.00 | 5 | 998.9 |
| 20260904122158 | 23 | 247 | 20.9 | 35.4 | 0.00 | 0.00 | 0.00 | 6 | 998.8 |
| 20260904121643 | 23 | 225 | 27.4 | 41.8 | 0.00 | 0.00 | 0.00 | 6 | 998.8 |
| 20260904121128 | 23 | 270 | 24.1 | 35.4 | 0.00 | 0.00 | 0.00 | 5 | 999.7 |
| 20260904120607 | 23 | 225 | 19.3 | 27.4 | 0.00 | 0.00 | 0.00 | 6 | 1000.0 |
| 20260904120552 | 23 | 247 | 22.5 | 33.8 | 0.00 | 0.00 | 0.00 | 6 | 999.2 |
| 20260904120036 | 23 | 270 | 17.7 | 33.8 | 0.00 | 0.00 | 0.00 | 6 | 999.7 |
| 20260904115515 | 23 | 247 | 24.1 | 41.8 | 0.00 | 0.00 | 0.00 | 6 | 999.9 |
| 20260904115000 | 23 | 202 | 22.5 | 32.2 | 0.00 | 0.00 | 0.00 | 6 | 1000.5 |
| 20260904114439 | 23 | 247 | 19.3 | 27.4 | 0.00 | 0.00 | 0.00 | 6 | 999.5 |
| 20260904114423 | 23 | 270 | 24.1 | 43.5 | 0.00 | 0.00 | 0.00 | 6 | 999.7 |
| 20260904113902 | 22 | 270 | 29.0 | 43.5 | 0.00 | 0.00 | 0.00 | 6 | 999.7 |
| 20260904113347 | 22 | 247 | 29.0 | 46.7 | 0.00 | 0.00 | 0.00 | 6 | 999.6 |
| 20260904112832 | 22 | 247 | 27.4 | 41.8 | 0.00 | 0.00 | 0.00 | 6 | 999.7 |
| 20260904112311 | 22 | 247 | 22.5 | 30.6 | 0.00 | 0.00 | 0.00 | 6 | 999.3 |
| 20260904112248 | 22 | 247 | 25.7 | 43.5 | 0.00 | 0.00 | 0.00 | 6 | 999.7 |
| 20260904111732 | 22 | 270 | 20.9 | 35.4 | 0.00 | 0.00 | 0.00 | 6 | 999.9 |
| 20260904111217 | 22 | 225 | 24.1 | 40.2 | 0.00 | 0.00 | 0.00 | 6 | 1000.2 |
| 20260904110657 | 22 | 247 | 16.1 | 24.1 | 0.00 | 0.00 | 0.00 | 6 | 1000.4 |
| 20260904110640 | 22 | 247 | 25.7 | 40.2 | 0.00 | 0.00 | 0.00 | 6 | 1000.5 |
| 20260904110125 | 22 | 247 | 25.7 | 40.2 | 0.00 | 0.00 | 0.00 | 6 | 1001.5 |
| 20260904105604 | 22 | 270 | 20.9 | 38.6 | 0.00 | 0.00 | 0.00 | 6 | 1000.9 |
| 20260904105049 | 22 | 225 | 25.7 | 46.7 | 0.00 | 0.00 | 0.00 | 6 | 1001.2 |
| 20260904104528 | 22 | 247 | 25.7 | 33.8 | 0.00 | 0.00 | 0.00 | 6 | 1001.3 |
| 20260904104512 | 22 | 225 | 22.5 | 35.4 | 0.00 | 0.00 | 0.00 | 6 | 1000.9 |
| 20260904103951 | 22 | 225 | 27.4 | 41.8 | 0.00 | 0.00 | 0.00 | 6 | 1001.6 |
| 20260904103436 | 22 | 180 | 24.1 | 43.5 | 0.00 | 0.00 | 0.00 | 6 | 1001.6 |
| 20260904102921 | 21 | 202 | 27.4 | 41.8 | 0.00 | 0.00 | 0.00 | 6 | 1002.2 |
| 20260904102400 | 21 | 225 | 27.4 | 33.8 | 0.00 | 0.00 | 0.00 | 6 | 1002.1 |
| 20260904102337 | 21 | 247 | 24.1 | 40.2 | 0.00 | 0.00 | 0.00 | 6 | 1002.3 |
| 20260904101822 | 21 | 225 | 20.9 | 33.8 | 0.00 | 0.00 | 0.00 | 6 | 1002.5 |
| 20260904101307 | 21 | 225 | 25.7 | 40.2 | 0.00 | 0.00 | 0.00 | 6 | 1002.0 |
| 20260904100744 | 21 | 247 | 30.6 | 38.6 | 0.00 | 0.00 | 0.00 | 7 | 1002.5 |
| 20260904100729 | 21 | 225 | 24.1 | 37.0 | 0.00 | 0.00 | 0.00 | 7 | 1002.7 |
| 20260904100214 | 21 | 247 | 32.2 | 46.7 | 0.00 | 0.00 | 0.00 | 7 | 1002.0 |
| 20260904095653 | 21 | 247 | 32.2 | 48.3 | 0.00 | 0.00 | 0.00 | 7 | 1002.1 |
| 20260904095138 | 21 | 225 | 29.0 | 41.8 | 0.00 | 0.00 | 0.00 | 7 | 1002.2 |
| 20260904094617 | 21 | 225 | 25.7 | 37.0 | 0.00 | 0.00 | 0.00 | 7 | 1002.6 |
| 20260904094601 | 21 | 225 | 29.0 | 48.3 | 0.00 | 0.00 | 0.00 | 7 | 1002.2 |
| 20260904094040 | 21 | 202 | 27.4 | 45.1 | 0.00 | 0.00 | 0.00 | 7 | 1002.4 |
| 20260904093524 | 21 | 247 | 24.1 | 37.0 | 0.00 | 0.00 | 0.00 | 6 | 1001.8 |
| 20260904093009 | 21 | 225 | 25.7 | 41.8 | 0.00 | 0.00 | 0.00 | 6 | 1002.4 |
| 20260904092448 | 21 | 225 | 17.7 | 27.4 | 0.00 | 0.00 | 0.00 | 6 | 1002.9 |
| 20260904092433 | 21 | 225 | 24.1 | 41.8 | 0.00 | 0.00 | 0.00 | 6 | 1003.1 |
| 20260904091912 | 21 | 270 | 27.4 | 40.2 | 0.00 | 0.00 | 0.00 | 6 | 1001.7 |
| 20260904091356 | 21 | 270 | 29.0 | 46.7 | 0.00 | 0.00 | 0.00 | 7 | 1002.5 |
| 20260904090841 | 21 | 247 | 25.7 | 46.7 | 0.00 | 0.00 | 0.00 | 7 | 1002.6 |
| 20260904090321 | 20 | 247 | 20.9 | 29.0 | 0.00 | 0.00 | 0.00 | 7 | 1003.4 |
| 20260904090257 | 20 | 202 | 24.1 | 38.6 | 0.00 | 0.00 | 0.00 | 7 | 1003.4 |
| 20260904085742 | 20 | 270 | 22.5 | 41.8 | 0.00 | 0.00 | 0.00 | 7 | 1003.0 |
| 20260904085227 | 20 | 225 | 24.1 | 40.2 | 0.00 | 0.00 | 0.00 | 7 | 1002.5 |
| 20260904084706 | 20 | 247 | 17.7 | 22.5 | 0.00 | 0.00 | 0.00 | 7 | 1002.1 |
| 20260904084642 | 20 | 270 | 20.9 | 33.8 | 0.00 | 0.00 | 0.00 | 7 | 1003.2 |
| 20260904084126 | 20 | 225 | 24.1 | 37.0 | 0.00 | 0.00 | 0.00 | 7 | 1003.6 |
| 20260904083611 | 20 | 247 | 24.1 | 38.6 | 0.00 | 0.00 | 0.00 | 7 | 1004.0 |
| 20260904083050 | 20 | 225 | 22.5 | 30.6 | 0.00 | 0.00 | 0.00 | 7 | 1002.8 |
| 20260904083032 | 20 | 225 | 25.7 | 45.1 | 0.00 | 0.00 | 0.00 | 7 | 1002.5 |
| 20260904082517 | 19 | 225 | 20.9 | 35.4 | 0.00 | 0.00 | 0.00 | 7 | 1003.6 |
| 20260904081956 | 19 | 225 | 17.7 | 27.4 | 0.00 | 0.00 | 0.00 | 7 | 1004.0 |
| 20260904081435 | 18 | 247 | 16.1 | 20.9 | 0.00 | 0.00 | 0.00 | 7 | 1003.2 |
| 20260904081418 | 18 | 225 | 20.9 | 33.8 | 0.00 | 0.00 | 0.00 | 7 | 1003.0 |
| 20260904080903 | 18 | 247 | 20.9 | 32.2 | 0.00 | 0.00 | 0.00 | 7 | 1003.3 |
| 20260904080342 | 18 | 225 | 20.9 | 35.4 | 0.00 | 0.00 | 0.00 | 7 | 1004.1 |
| 20260904075827 | 18 | 225 | 19.3 | 27.4 | 0.00 | 0.00 | 0.00 | 7 | 1004.2 |
| 20260904075307 | 18 | 225 | 14.5 | 19.3 | 0.00 | 0.00 | 0.00 | 7 | 1002.7 |
| 20260904075250 | 18 | 270 | 19.3 | 30.6 | 0.00 | 0.00 | 0.00 | 7 | 1002.6 |
| 20260904074729 | 18 | 270 | 22.5 | 37.0 | 0.00 | 0.00 | 0.00 | 7 | 1002.9 |
| 20260904074214 | 17 | 225 | 22.5 | 38.6 | 0.00 | 0.00 | 0.00 | 7 | 1003.5 |
| 20260904073659 | 17 | 247 | 20.9 | 32.2 | 0.00 | 0.00 | 0.00 | 7 | 1003.6 |
| 20260904073138 | 17 | 225 | 17.7 | 25.7 | 0.00 | 0.00 | 0.00 | 7 | 1003.4 |
| 20260904073122 | 17 | 202 | 24.1 | 32.2 | 0.00 | 0.00 | 0.00 | 7 | 1003.4 |
| 20260904072601 | 17 | 225 | 22.5 | 35.4 | 0.00 | 0.00 | 0.00 | 7 | 1003.5 |
| 20260904072046 | 17 | 225 | 22.5 | 33.8 | 0.00 | 0.00 | 0.00 | 7 | 1004.2 |
| 20260904071531 | 17 | 225 | 22.5 | 32.2 | 0.00 | 0.00 | 0.00 | 7 | 1004.0 |
| 20260904071010 | 17 | 225 | 20.9 | 27.4 | 0.00 | 0.00 | 0.00 | 8 | 1003.8 |
| 20260904070954 | 17 | 247 | 24.1 | 38.6 | 0.00 | 0.00 | 0.00 | 8 | 1003.6 |
| 20260904070439 | 17 | 225 | 25.7 | 35.4 | 0.00 | 0.00 | 0.00 | 8 | 1003.4 |
| 20260904065918 | 17 | 225 | 27.4 | 41.8 | 0.00 | 0.00 | 0.00 | 7 | 1003.7 |
| 20260904065403 | 17 | 225 | 25.7 | 37.0 | 0.00 | 0.00 | 0.00 | 7 | 1003.7 |
| 20260904064842 | 16 | 247 | 20.9 | 27.4 | 0.00 | 0.00 | 0.00 | 8 | 1004.0 |
| 20260904064826 | 16 | 247 | 25.7 | 37.0 | 0.00 | 0.00 | 0.00 | 8 | 1004.1 |
| 20260904064306 | 16 | 225 | 20.9 | 29.0 | 0.00 | 0.00 | 0.00 | 8 | 1003.5 |
| 20260904063750 | 16 | 247 | 24.1 | 38.6 | 0.00 | 0.00 | 0.00 | 8 | 1004.0 |
| 20260904063235 | 16 | 247 | 24.1 | 40.2 | 0.00 | 0.00 | 0.00 | 8 | 1004.5 |
| 20260904062714 | 16 | 225 | 20.9 | 27.4 | 0.00 | 0.00 | 0.00 | 8 | 1003.3 |
| 20260904062658 | 16 | 247 | 22.5 | 35.4 | 0.00 | 0.00 | 0.00 | 8 | 1003.9 |
| 20260904062137 | 16 | 225 | 24.1 | 35.4 | 0.00 | 0.00 | 0.00 | 8 | 1004.6 |
| 20260904061622 | 16 | 225 | 25.7 | 37.0 | 0.00 | 0.00 | 0.00 | 8 | 1004.2 |
| 20260904061107 | 16 | 247 | 25.7 | 37.0 | 0.00 | 0.00 | 0.00 | 8 | 1003.9 |
| 20260904060547 | 16 | 247 | 25.7 | 33.8 | 0.00 | 0.00 | 0.00 | 8 | 1003.3 |
| 20260904060523 | 16 | 270 | 27.4 | 38.6 | 0.00 | 0.00 | 0.00 | 8 | 1003.0 |
| 20260904060008 | 16 | 247 | 24.1 | 35.4 | 0.00 | 0.00 | 0.00 | 8 | 1003.3 |
| 20260904055453 | 16 | 247 | 24.1 | 38.6 | 0.00 | 0.00 | 0.00 | 8 | 1003.7 |
| 20260904054932 | 16 | 247 | 17.7 | 25.7 | 0.00 | 0.00 | 0.00 | 8 | 1003.9 |
| 20260904054907 | 16 | 247 | 24.1 | 37.0 | 0.00 | 0.00 | 0.00 | 8 | 1003.6 |
| 20260904054352 | 16 | 202 | 19.3 | 27.4 | 0.00 | 0.00 | 0.00 | 8 | 1004.6 |
| 20260904053837 | 16 | 270 | 16.1 | 27.4 | 0.00 | 0.00 | 0.00 | 8 | 1002.9 |
| 20260904053316 | 16 | 225 | 22.5 | 30.6 | 0.00 | 0.00 | 0.00 | 8 | 1003.9 |
| 20260904053252 | 16 | 202 | 24.1 | 32.2 | 0.00 | 0.00 | 0.00 | 8 | 1004.6 |
| 20260904052737 | 15 | 225 | 20.9 | 32.2 | 0.00 | 0.00 | 0.00 | 8 | 1004.5 |
| 20260904052222 | 16 | 225 | 22.5 | 37.0 | 0.00 | 0.00 | 0.00 | 8 | 1004.6 |
| 20260904051701 | 15 | 225 | 17.7 | 24.1 | 0.00 | 0.00 | 0.00 | 8 | 1003.8 |
| 20260904051644 | 15 | 225 | 19.3 | 33.8 | 0.00 | 0.00 | 0.00 | 8 | 1003.2 |
| 20260904051123 | 15 | 247 | 19.3 | 30.6 | 0.00 | 0.00 | 0.00 | 8 | 1003.4 |
| 20260904050608 | 15 | 225 | 24.1 | 37.0 | 0.00 | 0.00 | 0.00 | 8 | 1004.6 |
| 20260904050053 | 15 | 225 | 25.7 | 37.0 | 0.00 | 0.00 | 0.00 | 8 | 1004.4 |
| 20260904045532 | 15 | 247 | 20.9 | 29.0 | 0.00 | 0.00 | 0.00 | 8 | 1004.1 |
| 20260904045516 | 15 | 247 | 24.1 | 33.8 | 0.00 | 0.00 | 0.00 | 8 | 1004.5 |
| 20260904044955 | 15 | 247 | 24.1 | 35.4 | 0.00 | 0.00 | 0.00 | 8 | 1004.5 |
| 20260904044440 | 15 | 247 | 22.5 | 37.0 | 0.00 | 0.00 | 0.00 | 8 | 1004.5 |
| 20260904043925 | 15 | 202 | 20.9 | 33.8 | 0.00 | 0.00 | 0.00 | 8 | 1005.0 |
| 20260904043404 | 15 | 202 | 19.3 | 29.0 | 0.00 | 0.00 | 0.00 | 8 | 1006.0 |
| 20260904043340 | 15 | 225 | 20.9 | 30.6 | 0.00 | 0.00 | 0.00 | 8 | 1005.1 |
| 20260904042825 | 15 | 247 | 17.7 | 27.4 | 0.00 | 0.00 | 0.00 | 8 | 1005.4 |
| 20260904042310 | 15 | 247 | 14.5 | 24.1 | 0.00 | 0.00 | 0.00 | 8 | 1004.7 |
| 20260904041749 | 15 | 247 | 14.5 | 20.9 | 0.00 | 0.00 | 0.00 | 8 | 1004.2 |
| 20260904041725 | 15 | 225 | 14.5 | 24.1 | 0.00 | 0.00 | 0.00 | 8 | 1005.0 |
| 20260904041210 | 15 | 247 | 14.5 | 22.5 | 0.00 | 0.00 | 0.00 | 8 | 1004.7 |
| 20260904040655 | 15 | 247 | 12.9 | 20.9 | 0.00 | 0.00 | 0.00 | 8 | 1003.5 |
| 20260904040134 | 15 | 225 | 11.3 | 14.5 | 0.00 | 0.00 | 0.00 | 8 | 1003.9 |
| 20260904040116 | 15 | 202 | 11.3 | 17.7 | 0.00 | 0.00 | 0.00 | 8 | 1003.6 |
| 20260904035601 | 15 | 225 | 11.3 | 20.9 | 0.00 | 0.00 | 0.00 | 8 | 1005.0 |
| 20260904035040 | 15 | 247 | 17.7 | 29.0 | 0.00 | 0.00 | 0.00 | 8 | 1004.1 |
| 20260904034519 | 15 | 225 | 16.1 | 20.9 | 0.00 | 0.00 | 0.00 | 8 | 1004.2 |
| 20260904034502 | 15 | 225 | 16.1 | 25.7 | 0.00 | 0.00 | 0.00 | 8 | 1003.9 |
| 20260904033947 | 15 | 225 | 16.1 | 30.6 | 0.00 | 0.00 | 0.00 | 8 | 1004.2 |
| 20260904033426 | 15 | 247 | 16.1 | 29.0 | 0.00 | 0.00 | 0.00 | 8 | 1004.6 |
| 20260904032911 | 15 | 247 | 17.7 | 25.7 | 0.00 | 0.00 | 0.00 | 8 | 1005.0 |
| 20260904032350 | 15 | 225 | 14.5 | 19.3 | 0.00 | 0.00 | 0.00 | 8 | 1004.4 |
| 20260904032334 | 15 | 225 | 16.1 | 27.4 | 0.00 | 0.00 | 0.00 | 8 | 1004.1 |
| 20260904031813 | 15 | 225 | 17.7 | 25.7 | 0.00 | 0.00 | 0.00 | 8 | 1004.9 |
| 20260904031258 | 15 | 225 | 17.7 | 24.1 | 0.00 | 0.00 | 0.00 | 8 | 1006.0 |
| 20260904030743 | 15 | 247 | 16.1 | 25.7 | 0.00 | 0.00 | 0.00 | 8 | 1004.0 |
| 20260904030222 | 15 | 225 | 16.1 | 20.9 | 0.00 | 0.00 | 0.00 | 8 | 1005.6 |
| 20260904030206 | 15 | 225 | 14.5 | 22.5 | 0.00 | 0.00 | 0.00 | 8 | 1005.5 |
| 20260904025645 | 15 | 225 | 16.1 | 22.5 | 0.00 | 0.00 | 0.00 | 8 | 1004.2 |
| 20260904025130 | 15 | 247 | 14.5 | 25.7 | 0.00 | 0.00 | 0.00 | 8 | 1005.2 |
| 20260904024615 | 15 | 225 | 16.1 | 27.4 | 0.00 | 0.00 | 0.00 | 8 | 1005.1 |
| 20260904024054 | 15 | 247 | 14.5 | 20.9 | 0.00 | 0.00 | 0.00 | 8 | 1005.8 |
| 20260904024030 | 15 | 247 | 14.5 | 24.1 | 0.00 | 0.00 | 0.00 | 8 | 1005.1 |
| 20260904023515 | 15 | 247 | 12.9 | 25.7 | 0.00 | 0.00 | 0.00 | 9 | 1005.1 |
| 20260904023000 | 15 | 247 | 17.7 | 27.4 | 0.00 | 0.00 | 0.00 | 9 | 1005.7 |
| 20260904022439 | 15 | 247 | 17.7 | 24.1 | 0.00 | 0.00 | 0.00 | 9 | 1005.8 |
| 20260904022422 | 15 | 225 | 17.7 | 25.7 | 0.00 | 0.00 | 0.00 | 9 | 1005.6 |
| 20260904021902 | 15 | 270 | 16.1 | 25.7 | 0.00 | 0.00 | 0.00 | 9 | 1005.6 |
| 20260904021346 | 15 | 247 | 14.5 | 25.7 | 0.00 | 0.00 | 0.00 | 9 | 1006.1 |
| 20260904020831 | 15 | 270 | 16.1 | 25.7 | 0.00 | 0.00 | 0.00 | 9 | 1006.3 |
| 20260904020310 | 15 | 247 | 14.5 | 17.7 | 0.00 | 0.00 | 0.00 | 9 | 1005.8 |
| 20260904020246 | 15 | 225 | 16.1 | 27.4 | 0.00 | 0.00 | 0.00 | 9 | 1005.8 |
| 20260904015731 | 15 | 247 | 11.3 | 20.9 | 0.00 | 0.00 | 0.00 | 8 | 1004.8 |